• In Hungary
  • List of Countries
  • For 7 days
  • Water Temperature
  • Satellite Maps
  • Weather Map
  • News
  • Weather Widgets
  • user-avatar
    Login

    Hourly Weather Mezotur

    Today, 18 October, Thursday

    Time Temperature Precipitation Wind Pressure Humidity
    00:00 +16°C° 0 mm 1 mps 757 mmHg 40%
    01:00 +15°C° 0 mm 2 mps 757 mmHg 42%
    02:00 +15°C° 0 mm 1 mps 756 mmHg 44%
    03:00 +14°C° 0 mm 1 mps 756 mmHg 45%
    04:00 +14°C° 0 mm 1 mps 756 mmHg 46%
    05:00 +14°C° 0 mm 1 mps 756 mmHg 47%
    06:00 +14°C° 0 mm 1 mps 756 mmHg 47%
    07:00 +15°C° 0 mm 1 mps 756 mmHg 46%
    08:00 +16°C° 0 mm 1 mps 756 mmHg 42%
    09:00 +19°C° 0 mm 1 mps 756 mmHg 38%
    10:00 +21°C° 0 mm 1 mps 756 mmHg 34%
    11:00 +22°C° 0 mm 1 mps 756 mmHg 32%
    12:00 +23°C° 0 mm 2 mps 756 mmHg 30%
    13:00 +24°C° 0 mm 2 mps 755 mmHg 28%
    14:00 +24°C° 0 mm 2 mps 755 mmHg 29%
    15:00 +23°C° 0 mm 2 mps 755 mmHg 30%
    16:00 +23°C° 0 mm 2 mps 755 mmHg 31%
    17:00 +21°C° 0 mm 2 mps 755 mmHg 34%
    18:00 +20°C° 0 mm 2 mps 755 mmHg 36%
    19:00 +19°C° 0 mm 2 mps 755 mmHg 38%
    20:00 +19°C° 0.2 mm 2 mps 755 mmHg 43%
    21:00 +18°C° 0.2 mm 2 mps 755 mmHg 48%
    22:00 +18°C° 0.2 mm 2 mps 756 mmHg 53%
    23:00 +18°C° 0.2 mm 1 mps 756 mmHg 57%

    Tomorrow, 19 October, Friday

    Time Temperature Precipitation Wind Pressure Humidity
    00:00 +18°C° 0.2 mm 1 mps 756 mmHg 60%
    01:00 +18°C° 0.2 mm 1 mps 756 mmHg 64%
    02:00 +18°C° 0.1 mm 1 mps 756 mmHg 66%
    03:00 +16°C° 0.1 mm 1 mps 756 mmHg 69%
    04:00 +16°C° 0.1 mm 1 mps 755 mmHg 71%
    05:00 +16°C° 0 mm 1 mps 756 mmHg 72%
    06:00 +16°C° 0 mm 1 mps 756 mmHg 72%
    07:00 +16°C° 0 mm 1 mps 756 mmHg 73%
    08:00 +18°C° 0 mm 1 mps 757 mmHg 66%
    09:00 +19°C° 0 mm 1 mps 757 mmHg 59%
    10:00 +21°C° 0 mm 1 mps 757 mmHg 53%
    11:00 +20°C° 0 mm 2 mps 757 mmHg 49%
    12:00 +21°C° 0 mm 2 mps 757 mmHg 46%
    13:00 +22°C° 0 mm 3 mps 757 mmHg 42%
    14:00 +21°C° 0 mm 3 mps 757 mmHg 44%
    15:00 +20°C° 0 mm 3 mps 757 mmHg 46%
    16:00 +20°C° 0 mm 3 mps 756 mmHg 48%
    17:00 +19°C° 0 mm 3 mps 757 mmHg 53%
    18:00 +18°C° 0 mm 3 mps 757 mmHg 57%
    19:00 +16°C° 0 mm 2 mps 757 mmHg 61%
    20:00 +16°C° 0 mm 2 mps 757 mmHg 63%
    21:00 +15°C° 0 mm 2 mps 758 mmHg 66%
    22:00 +15°C° 0 mm 1 mps 758 mmHg 69%
    23:00 +15°C° 0 mm 2 mps 758 mmHg 70%

    Day after tomorrow, 20 October, Saturday

    Time Temperature Precipitation Wind Pressure Humidity
    00:00 +15°C° 0 mm 2 mps 758 mmHg 71%
    01:00 +15°C° 0 mm 2 mps 758 mmHg 72%
    02:00 +15°C° 0 mm 2 mps 758 mmHg 72%
    03:00 +15°C° 0 mm 2 mps 758 mmHg 73%
    04:00 +14°C° 0 mm 3 mps 758 mmHg 74%
    05:00 +13°C° 0 mm 3 mps 758 mmHg 75%
    06:00 +13°C° 0 mm 3 mps 759 mmHg 75%
    07:00 +13°C° 0 mm 3 mps 759 mmHg 76%
    08:00 +16°C° 0 mm 3 mps 759 mmHg 69%
    09:00 +17°C° 0 mm 3 mps 759 mmHg 61%
    10:00 +19°C° 0 mm 4 mps 760 mmHg 53%
    11:00 +20°C° 0 mm 4 mps 759 mmHg 50%
    12:00 +21°C° 0 mm 4 mps 759 mmHg 46%
    13:00 +21°C° 0 mm 4 mps 759 mmHg 43%
    14:00 +21°C° 0 mm 4 mps 759 mmHg 44%
    15:00 +21°C° 0 mm 3 mps 759 mmHg 46%
    16:00 +20°C° 0 mm 3 mps 759 mmHg 47%
    17:00 +19°C° 0 mm 3 mps 759 mmHg 51%
    18:00 +18°C° 0 mm 3 mps 759 mmHg 55%
    19:00 +17°C° 0 mm 4 mps 760 mmHg 60%
    20:00 +16°C° 0 mm 3 mps 760 mmHg 61%
    21:00 +14°C° 0 mm 3 mps 760 mmHg 63%
    22:00 +13°C° 0 mm 3 mps 760 mmHg 65%
    23:00 +13°C° 0 mm 3 mps 760 mmHg 65%

    21 October, Sunday

    Time Temperature Precipitation Wind Pressure Humidity
    00:00 +13°C° 0 mm 3 mps 760 mmHg 65%
    01:00 +13°C° 0 mm 4 mps 760 mmHg 64%
    02:00 +13°C° 0 mm 3 mps 760 mmHg 63%
    03:00 +13°C° 0 mm 3 mps 760 mmHg 62%
    04:00 +12°C° 0 mm 3 mps 760 mmHg 61%
    05:00 +12°C° 0 mm 3 mps 760 mmHg 61%
    06:00 +12°C° 0 mm 3 mps 761 mmHg 62%
    07:00 +12°C° 0 mm 4 mps 761 mmHg 63%
    08:00 +12°C° 0 mm 4 mps 761 mmHg 59%
    09:00 +13°C° 0 mm 4 mps 761 mmHg 55%
    10:00 +13°C° 0 mm 4 mps 761 mmHg 51%
    11:00 +13°C° 0 mm 4 mps 760 mmHg 50%
    12:00 +13°C° 0 mm 4 mps 760 mmHg 49%
    13:00 +13°C° 0 mm 3 mps 760 mmHg 48%
    14:00 +13°C° 0 mm 3 mps 759 mmHg 48%
    15:00 +13°C° 0 mm 3 mps 759 mmHg 48%
    16:00 +13°C° 0 mm 3 mps 759 mmHg 49%
    17:00 +12°C° 0 mm 3 mps 759 mmHg 51%
    18:00 +12°C° 0 mm 3 mps 759 mmHg 53%
    19:00 +11°C° 0 mm 3 mps 759 mmHg 55%
    20:00 +11°C° 0 mm 3 mps 759 mmHg 55%
    21:00 +10°C° 0 mm 3 mps 759 mmHg 55%
    22:00 +10°C° 0 mm 4 mps 759 mmHg 55%
    23:00 +8°C° 0 mm 4 mps 759 mmHg 59%

    22 October, Monday

    Time Temperature Precipitation Wind Pressure Humidity
    00:00 +8°C° 0 mm 4 mps 759 mmHg 62%
    01:00 +7°C° 0 mm 4 mps 759 mmHg 65%
    02:00 +7°C° 0 mm 4 mps 759 mmHg 66%
    03:00 +7°C° 0 mm 4 mps 759 mmHg 66%
    04:00 +6°C° 0 mm 4 mps 759 mmHg 67%
    05:00 +6°C° 0 mm 4 mps 759 mmHg 67%
    06:00 +6°C° 0 mm 4 mps 759 mmHg 67%
    07:00 +6°C° 0 mm 4 mps 760 mmHg 66%
    08:00 +8°C° 0 mm 5 mps 760 mmHg 60%
    09:00 +9°C° 0 mm 5 mps 760 mmHg 53%
    10:00 +12°C° 0 mm 5 mps 760 mmHg 46%
    11:00 +12°C° 0 mm 5 mps 759 mmHg 43%
    12:00 +13°C° 0 mm 5 mps 759 mmHg 40%
    13:00 +14°C° 0 mm 4 mps 759 mmHg 37%
    14:00 +14°C° 0 mm 4 mps 759 mmHg 38%
    15:00 +13°C° 0 mm 3 mps 759 mmHg 39%
    16:00 +13°C° 0 mm 3 mps 758 mmHg 39%
    17:00 +12°C° 0 mm 3 mps 759 mmHg 42%
    18:00 +12°C° 0 mm 2 mps 759 mmHg 45%
    19:00 +10°C° 0 mm 2 mps 759 mmHg 48%
    20:00 +9°C° 0 mm 2 mps 759 mmHg 50%
    21:00 +9°C° 0 mm 2 mps 759 mmHg 51%
    22:00 +9°C° 0 mm 1 mps 759 mmHg 52%
    23:00 +9°C° 0 mm 1 mps 759 mmHg 53%

    23 October, Tuesday

    Time Temperature Precipitation Wind Pressure Humidity
    00:00 +8°C° 0 mm 2 mps 758 mmHg 54%
    01:00 +7°C° 0 mm 2 mps 758 mmHg 56%
    02:00 +7°C° 0 mm 2 mps 758 mmHg 57%
    03:00 +8°C° 0 mm 1 mps 757 mmHg 59%
    04:00 +7°C° 0 mm 1 mps 757 mmHg 60%
    05:00 +7°C° 0 mm 2 mps 757 mmHg 61%
    06:00 +7°C° 0 mm 2 mps 756 mmHg 61%
    07:00 +7°C° 0 mm 2 mps 756 mmHg 61%
    08:00 +8°C° 0.2 mm 2 mps 756 mmHg 63%
    09:00 +9°C° 0.2 mm 2 mps 756 mmHg 64%
    10:00 +9°C° 0.2 mm 2 mps 755 mmHg 65%
    11:00 +9°C° 0.4 mm 2 mps 755 mmHg 69%
    12:00 +10°C° 0.4 mm 2 mps 754 mmHg 73%
    13:00 +10°C° 0.4 mm 2 mps 754 mmHg 76%
    14:00 +10°C° 0.1 mm 2 mps 753 mmHg 75%
    15:00 +10°C° 0.1 mm 2 mps 753 mmHg 74%
    16:00 +10°C° 0.1 mm 2 mps 752 mmHg 72%
    17:00 +10°C° 0 mm 3 mps 752 mmHg 72%
    18:00 +9°C° 0 mm 3 mps 752 mmHg 72%
    19:00 +8°C° 0 mm 3 mps 752 mmHg 71%
    20:00 +8°C° 0 mm 3 mps 751 mmHg 70%
    21:00 +8°C° 0 mm 3 mps 751 mmHg 70%
    22:00 +7°C° 0 mm 3 mps 751 mmHg 69%
    23:00 +7°C° 0 mm 3 mps 750 mmHg 71%
    Show more